Tracking 17265 objects as of 4-September-2015
HD Live streaming from Space Station

Track Soyuz TMA-18M
and Space Station

NAVSTAR 28 (USA 85)

Track NAVSTAR 28 (USA 85) now!
NAVSTAR 28 (USA 85) is classified as:


NORAD ID: 22231
Int'l Code: 1992-079A
Perigee: 19,961.4 km
Apogee: 20,417.4 km
Inclination: 55.5 °
Period: 718.0 minutes
Semi major axis: 26560 km
RCS: 3.981 m2 (large)
Launch date: November 22, 1992
Source: United States (US)
PRN:
Your satellite tracking list
Your tracking list is empty





NASA's NSSDC Master Catalog

Two Line Element Set (TLE):
1 22231U 92079A   15245.61917292 +.00000025 +00000-0 +00000-0 0  9998
2 22231 055.5162 252.9048 0085827 285.1053 224.9027 02.00563172166881

Source of the keplerian elements: AFSPC

N2YO: 412